This is the latest recevied weather packets stored in our database for station/object IW1QQG-13. If no packets are shown the sender has not sent any weather packets the latest 10 day(s).
| Time | Temp. | Humidity | Pressure | Rain* | Wind** | Luminosity | Snow |
|---|---|---|---|---|---|---|---|
| 1777913150 | 17.22° C | 55% | 1015.9 hPa | 0 mm | - | 20 W/m² | - |
| 1777912550 | 17.22° C | 59% | 1015.6 hPa | 0 mm | - | 40 W/m² | - |
| 1777911950 | 17.22° C | 63% | 1015.6 hPa | 0 mm | - | 48 W/m² | - |
| 1777911350 | 17.22° C | 67% | 1015.9 hPa | 0 mm | - | 54 W/m² | - |
| 1777910750 | 17.22° C | 66% | 1015.9 hPa | 0 mm | - | 64 W/m² | - |
| 1777910150 | 17.22° C | 66% | 1015.9 hPa | 0 mm | - | 82 W/m² | - |
| 1777909550 | 17.22° C | 69% | 1015.9 hPa | 0 mm | - | 87 W/m² | - |
| 1777908950 | 17.78° C | 68% | 1015.9 hPa | 0 mm | - | 112 W/m² | - |
| 1777908350 | 17.78° C | 69% | 1015.9 hPa | 0 mm | - | 129 W/m² | - |
| 1777907750 | 17.78° C | 69% | 1015.9 hPa | 0 mm | - | 228 W/m² | - |
| 1777907150 | 17.78° C | 69% | 1015.9 hPa | 0 mm | - | 196 W/m² | - |
| 1777906550 | 18.33° C | 69% | 1015.9 hPa | 0 mm | - | 191 W/m² | - |
| 1777905950 | 18.89° C | 65% | 1015.6 hPa | 0 mm | - | 245 W/m² | - |
| 1777905350 | 19.44° C | 64% | 1015.9 hPa | 0 mm | - | - | - |
| 1777904750 | 20° C | 64% | 1015.6 hPa | 0 mm | - | - | - |
| 1777904150 | 19.44° C | 63% | 1015.6 hPa | 0 mm | - | 281 W/m² | - |
| 1777903550 | 20° C | 63% | 1015.6 hPa | 0 mm | - | 0 W/m² | - |
| 1777902950 | 20.56° C | 62% | 1015.9 hPa | 0 mm | - | - | - |
| 1777902350 | 20.56° C | 63% | 1015.9 hPa | 0 mm | - | 259 W/m² | - |
| 1777901750 | 20.56° C | 64% | 1016.3 hPa | 0 mm | - | 129 W/m² | - |
| 1777901150 | 20° C | 64% | 1016.3 hPa | 0 mm | - | - | - |
| 1777900550 | 20.56° C | 63% | 1016.3 hPa | 0 mm | - | - | - |
| 1777899350 | 18.89° C | 65% | 1016.6 hPa | 0 mm | - | 30 W/m² | - |
| 1777898750 | 18.89° C | 67% | 1016.6 hPa | 0 mm | - | 303 W/m² | - |
| 1777898150 | 18.89° C | 69% | 1016.6 hPa | 0 mm | - | - | - |
* Rain latest hour (hover to see other rain measurements)
** Current wind speed in m/s (hover to see current wind gust speed)